STARLINK-3297 (50159 NORAD) Tracking and Keplerian Element Data

This shows tracking and keplerian element data for the satellite.

Feedback or suggestion? Click here.




ElementValue
Catalog50159
NameSTARLINK-3297
Epoch Orbit130
Epoch Day140.58334491
Epoch Year2022
RAAN15.0731
Inclination53.2171
Eccentricity0.0002019
Argument of Perigee35.385
Mean Anonmoly16.1364
Mean Motion15.08842552
Decay Rate-5.966E-05
L11 50159U 21125D 22140.58334491 -.00005966 00000+0 -35700-3 0 9992
L22 50159 53.2171 15.0731 0002019 35.3850 16.1364 15.08842552 1309

Live tracking and technical data element details for STARLINK-3297 (NORAD 50159). STARLINK-3297 can be tracked NOW for your location showing map with azimuth and elevation plus other details from your city location.

Track the satellite on the map from your city or location and see movement details for azimuth, elevation, latitude, longitude, range, height, and movement on the map or in text.







IsCatalogInMostPopularTable: catalog: 50159, numindb: 22
Update: records affected: 1



GetName: 50159 STARLINK-3297

Hit Count: updated at: Mon, 23 May 2022 21:42:52 GMT